CZ-6A DEB, 56657

Orbit data source: Space-Track

CZ-6A DEB, 56657 is space debris in SSO originally from a launch on Fri, 11 Nov 2022 UTC launched from the Taiyaun Space Center, China (TSC). Debris objects in space refer to the collection of defunct objects orbiting the Earth. Examples of debris include non-operational satellites, rocket bodies, and fragments generated from explosions, collisions, or faulty payload assembly.

Loading next visibility...
Identifier
56657, 2022-151AGH
Orbit
SSO
Country
Flag of CNCN / PRC
Related business
Manufacturer
SAST
Mission
Spacecraft
Bus & Motor
Unknown
Mass
Unknown
Launch date (UTC)
2022-11-11 (4 years ago)
Launch vehicle
Unknown
Launch site
Taiyaun Space Center, China (TSC)
Object type
Payload
Rocket body
Debris
Shape & HBR
Unknown shape, 0.1 m
Radar Cross Section
Small (<0.1 m²)

Expand to show TLE details & history
Last TLE update: 3 days ago

TLE from 3 days ago
0 CZ-6A DEB
1 56657U 22151AGH 26170.11183248  .00000254  00000-0  24250-3 0  9991
2 56657  98.9558 118.2902 0178229 133.2967 228.3210 13.82013759163926
Epoch: 2026-06-19T02:41Z
TLE epoch observation values (Epoch: 2026-06-19T02:41:02.326Z)
Latitude
0.00006°
Longitude
170.68501°
Altitude
1,047.832 km
Speed
7.284 km/s
True Right ascension
07h 53m 09s
True Declination
0° 00' 00"
Sunlit
Object was in daylight at epoch
Visualization orbit readout
Latitude
Unknown
Longitude
Unknown
Altitude
Unknown
Speed
Unknown
Apparent Right ascension
Unknown
Apparent Declination
Unknown
Sunlit
N/A
Visualization observer readout
Local Sidereal Time
21:33:54
Azimuth
Unknown
Elevation
Unknown
Doppler factor
Unknown
Orbital elements
Apogee altitude
1,084.652 km
Perigee altitude
823.293 km
Semi-major axis
7,332.11 km
Eccentricity
0.01782
Inclination
98.9558°
RAAN
118.2902°
Arg. of periapsis
133.2967°
True anomaly
226.81806°
Mean anomaly
228.321°
Eccentric anomaly
227.5673°
Mean motion
3.457 °/min
Orbital period
104.14 mins
BSTAR
0.0002425
Loading maneuver chart data...
Computing Atmospheric mass density...
Loading historical data...
Loading historical data...
Loading historical data...
Loading historical data...
Loading historical data...
Loading historical data...
Loading historical data...

Documentation

Showing up to 5 results
|